H1 CPF 2 NER 2022 7 24 9 205 01 glonass116 H2 0907001 9116 36111 2022 7 24 0 0 0 2022 7 27 23 45 0 900 1 1 0 0 0 1 H9 10 0 59784 0.00000 0 -897146.581 11050353.151 -22971605.503 10 0 59784 900.00000 0 -3700921.606 11250853.672 -22589343.854 10 0 59784 1800.00000 0 -6409668.129 11643231.962 -21768292.830 10 0 59784 2700.00000 0 -8958609.393 12204763.957 -20524340.742 10 0 59784 3600.00000 0 -11289063.561 12902045.292 -18881596.038 10 0 59784 4500.00000 0 -13350643.435 13692442.935 -16871924.385 10 0 59784 5400.00000 0 -15103114.501 14525954.140 -14534334.289 10 0 59784 6300.00000 0 -16517834.362 15347394.747 -11914222.538 10 0 59784 7200.00000 0 -17578713.852 16098824.664 -9062493.708 10 0 59784 8100.00000 0 -18282660.208 16722108.112 -6034570.539 10 0 59784 9000.00000 0 -18639484.283 17161500.161 -2889314.360 10 0 59784 9900.00000 0 -18671276.397 17366149.701 312123.115 10 0 59784 10800.00000 0 -18411277.927 17292412.316 3507493.840 10 0 59784 11700.00000 0 -17902297.100 16905874.394 6634669.466 10 0 59784 12600.00000 0 -17194736.794 16183002.021 9632854.838 10 0 59784 13500.00000 0 -16344318.599 15112344.111 12443774.673 10 0 59784 14400.00000 0 -15409600.148 13695238.102 15012809.685 10 0 59784 15300.00000 0 -14449391.323 11945987.763 17290059.614 10 0 59784 16200.00000 0 -13520178.952 9891504.872 19231312.325 10 0 59784 17100.00000 0 -12673668.938 7570429.187 20798900.289 10 0 59784 18000.00000 0 -11954549.462 5031762.986 21962428.102 10 0 59784 18900.00000 0 -11398569.246 2333076.675 22699357.501 10 0 59784 19800.00000 0 -11031011.315 -461640.344 22995439.189 10 0 59784 20700.00000 0 -10865625.880 -3284394.633 22844983.735 10 0 59784 21600.00000 0 -10904066.565 -6065769.850 22250966.945 10 0 59784 22500.00000 0 -11135853.019 -8737567.666 21224968.087 10 0 59784 23400.00000 0 -11538860.976 -11235399.641 19786942.469 10 0 59784 24300.00000 0 -12080318.731 -13501123.424 17964832.842 10 0 59784 25200.00000 0 -12718267.873 -15485023.132 15794027.043 10 0 59784 26100.00000 0 -13403426.704 -17147644.223 13316672.129 10 0 59784 27000.00000 0 -14081377.856 -18461207.567 10580858.007 10 0 59784 27900.00000 0 -14694987.998 -19410544.832 7639685.954 10 0 59784 28800.00000 0 -15186957.656 -19993517.056 4550239.904 10 0 59784 29700.00000 0 -15502393.565 -20220899.909 1372480.180 10 0 59784 30600.00000 0 -15591294.866 -20115741.282 -1831918.925 10 0 59784 31500.00000 0 -15410847.988 -19712219.028 -5000765.101 10 0 59784 32400.00000 0 -14927432.975 -19054047.542 -8072554.235 10 0 59784 33300.00000 0 -14118256.000 -18192500.728 -10987663.324 10 0 59784 34200.00000 0 -12972538.559 -17184135.015 -13689506.751 10 0 59784 35100.00000 0 -11492212.294 -16088308.508 -16125633.444 10 0 59784 36000.00000 0 -9692089.189 -14964600.923 -18248743.712 10 0 59784 36900.00000 0 -7599498.842 -13870242.851 -20017606.113 10 0 59784 37800.00000 0 -5253406.703 -12857662.418 -21397856.853 10 0 59784 38700.00000 0 -2703048.761 -11972252.266 -22362666.533 10 0 59784 39600.00000 0 -6138.303 -11250450.439 -22893261.516 10 0 59784 40500.00000 0 2773281.920 -10718215.586 -22979290.084 10 0 59784 41400.00000 0 5567254.036 -10389960.325 -22619026.345 10 0 59784 42300.00000 0 8306486.625 -10267987.461 -21819407.847 10 0 59784 43200.00000 0 10922997.283 -10342452.735 -20595905.867 10 0 59784 44100.00000 0 13352707.240 -10591855.728 -18972230.441 10 0 59784 45000.00000 0 15537880.689 -10984038.434 -16979875.251 10 0 59784 45900.00000 0 17429307.893 -11477649.601 -14657510.579 10 0 59784 46800.00000 0 18988141.447 -12024013.218 -12050235.465 10 0 59784 47700.00000 0 20187309.324 -12569322.344 -9208703.149 10 0 59784 48600.00000 0 21012445.938 -13057065.457 -6188136.499 10 0 59784 49500.00000 0 21462302.598 -13430582.411 -3047252.481 10 0 59784 50400.00000 0 21548620.527 -13635641.345 152883.113 10 0 59784 51300.00000 0 21295472.399 -13622926.766 3350047.955 10 0 59784 52200.00000 0 20738100.804 -13350332.630 6482078.671 10 0 59784 53100.00000 0 19921303.399 -12784962.450 9488085.057 10 0 59784 54000.00000 0 18897433.703 -11904750.881 12309638.677 10 0 59784 54900.00000 0 17724102.673 -10699637.278 14891912.121 10 0 59784 55800.00000 0 16461678.798 -9172240.867 17184746.239 10 0 59784 56700.00000 0 15170692.605 -7338008.207 19143624.466 10 0 59784 57600.00000 0 13909255.294 -5224825.954 20730535.385 10 0 59784 58500.00000 0 12730600.216 -2872114.484 21914707.070 10 0 59784 59400.00000 0 11680850.352 -329439.561 22673199.505 10 0 59784 60300.00000 0 10797105.121 2345300.686 22991344.264 10 0 59784 61200.00000 0 10105926.140 5088038.575 22863023.537 10 0 59784 62100.00000 0 9622284.645 7830960.236 22290783.777 10 0 59784 63000.00000 0 9349013.792 10505089.623 21285782.181 10 0 59784 63900.00000 0 9276787.939 13042926.551 19867567.377 10 0 59784 64800.00000 0 9384628.927 15381030.133 18063698.620 10 0 59784 65700.00000 0 9640917.385 17462441.135 15909210.784 10 0 59784 66600.00000 0 10004866.003 19238843.358 13445935.270 10 0 59784 67500.00000 0 10428392.368 20672375.007 10721689.682 10 0 59784 68400.00000 0 10858312.172 21737015.352 7789351.587 10 0 59784 69300.00000 0 11238760.124 22419489.607 4705834.084 10 0 59784 70200.00000 0 11513736.237 22719654.914 1530982.865 10 0 59784 71100.00000 0 11629669.718 22650352.055 -1673584.008 10 0 59784 72000.00000 0 11537891.975 22236729.723 -4845670.976 10 0 59784 72900.00000 0 11196913.794 21515070.242 -7923711.212 10 0 59784 73800.00000 0 10574410.102 20531166.673 -10847960.770 10 0 59784 74700.00000 0 9648827.801 19338319.724 -13561657.176 10 0 59784 75600.00000 0 8410548.022 17995038.933 -16012120.006 10 0 59784 76500.00000 0 6862552.883 16562544.942 -18151772.151 10 0 59784 77400.00000 0 5020567.532 15102177.697 -19939062.039 10 0 59784 78300.00000 0 2912670.226 13672819.314 -21339269.206 10 0 59784 79200.00000 0 578385.282 12328439.413 -22325177.868 10 0 59784 80100.00000 0 -1932704.603 11115865.572 -22877605.696 10 0 59784 81000.00000 0 -4562770.281 10072871.949 -22985777.796 10 0 59784 81900.00000 0 -7247898.289 9226665.755 -22647538.720 10 0 59784 82800.00000 0 -9920514.438 8592834.679 -21869398.325 10 0 59784 83700.00000 0 -12511969.209 8174799.014 -20666410.316 10 0 59784 84600.00000 0 -14955178.446 7963791.213 -19061885.379 10 0 59784 85500.00000 0 -17187210.052 7939363.520 -17086943.900 10 0 59785 0.00000 0 -19151709.444 8070402.117 -14779916.507 10 0 59785 900.00000 0 -20801063.961 8316605.002 -12185602.131 10 0 59785 1800.00000 0 -22098213.407 8630360.854 -9354400.728 10 0 59785 2700.00000 0 -23018034.720 8958949.465 -6341332.997 10 0 59785 3600.00000 0 -23548240.123 9246970.124 -3204969.140 10 0 59785 4500.00000 0 -23689752.351 9438894.674 -6286.555 10 0 59785 5400.00000 0 -23456541.275 9481636.363 3192520.672 10 0 59785 6300.00000 0 -22874929.229 9327024.832 6329256.730 10 0 59785 7200.00000 0 -21982394.817 8934081.457 9342938.987 10 0 59785 8100.00000 0 -20825926.296 8270997.754 12174988.497 10 0 59785 9000.00000 0 -19459994.564 7316732.147 14770372.333 10 0 59785 9900.00000 0 -17944231.872 6062156.725 17078674.969 10 0 59785 10800.00000 0 -16340914.515 4510704.738 19055077.745 10 0 59785 11700.00000 0 -14712355.746 2678490.678 20661227.439 10 0 59785 12600.00000 0 -13118318.635 593897.161 21865977.357 10 0 59785 13500.00000 0 -11613557.288 -1703354.865 22645987.106 10 0 59785 14400.00000 0 -10245589.063 -4163614.507 22986170.077 10 0 59785 15300.00000 0 -9052790.474 -6729129.812 22879980.595 10 0 59785 16200.00000 0 -8062895.537 -9336221.739 22329535.815 10 0 59785 17100.00000 0 -7291958.357 -11917713.566 21345570.487 10 0 59785 18000.00000 0 -6743822.269 -14405515.396 19947225.739 10 0 59785 18900.00000 0 -6410116.587 -16733257.176 18161676.105 10 0 59785 19800.00000 0 -6270780.028 -18838861.501 16023601.876 10 0 59785 20700.00000 0 -6295087.912 -20666949.882 13574516.825 10 0 59785 21600.00000 0 -6443139.123 -22170982.999 10861963.983 10 0 59785 22500.00000 0 -6667739.641 -23315046.362 7938594.686 10 0 59785 23400.00000 0 -6916602.754 -24075207.415 4861148.516 10 0 59785 24300.00000 0 -7134772.714 -24440387.874 1689353.689 10 0 59785 25200.00000 0 -7267169.155 -24412715.333 -1515230.907 10 0 59785 26100.00000 0 -7261144.395 -24007339.698 -4690409.427 10 0 59785 27000.00000 0 -7068945.170 -23251722.747 -7774555.365 10 0 59785 27900.00000 0 -6649974.293 -22184430.800 -10707806.850 10 0 59785 28800.00000 0 -5972756.066 -20853481.367 -13433227.528 10 0 59785 29700.00000 0 -5016521.827 -19314313.514 -15897910.507 10 0 59785 30600.00000 0 -3772347.784 -17627466.955 -18054003.968 10 0 59785 31500.00000 0 -2243796.252 -15856067.303 -19859638.612 10 0 59785 32400.00000 0 -447032.132 -14063222.718 -21279739.315 10 0 59785 33300.00000 0 1589591.693 -12309440.548 -22286705.473 10 0 59785 34200.00000 0 3826464.117 -10650171.753 -22860947.124 10 0 59785 35100.00000 0 6214123.415 -9133585.308 -22991266.727 10 0 59785 36000.00000 0 8695085.481 -7798665.102 -22675079.295 10 0 59785 36900.00000 0 11206017.852 -6673708.390 -21918466.518 10 0 59785 37800.00000 0 13680170.274 -5775288.033 -20736063.606 10 0 59785 38700.00000 0 16049961.632 -5107721.423 -19150780.550 10 0 59785 39600.00000 0 18249616.300 -4663067.912 -17193362.671 10 0 59785 40500.00000 0 20217740.551 -4421654.317 -14901798.314 10 0 59785 41400.00000 0 21899731.922 -4353105.994 -12320584.542 10 0 59785 42300.00000 0 23249920.888 -4417839.580 -9499864.618 10 0 59785 43200.00000 0 24233355.288 -4568953.915 -6494453.697 10 0 59785 44100.00000 0 24827152.605 -4754438.664 -3362771.549 10 0 59785 45000.00000 0 25021363.251 -4919606.544 -165703.339 10 0 59785 45900.00000 0 24819308.571 -5009645.370 3034588.988 10 0 59785 46800.00000 0 24237379.476 -4972180.902 6175880.961 10 0 59785 47700.00000 0 23304304.378 -4759740.990 9197101.053 10 0 59785 48600.00000 0 22059917.699 -4332015.608 12039522.979 10 0 59785 49500.00000 0 20553481.214 -3657816.143 14647911.012 10 0 59785 50400.00000 0 18841629.457 -2716650.154 16971595.473 10 0 59785 51300.00000 0 16986026.012 -1499844.209 18965457.307 10 0 59785 52200.00000 0 15050829.511 -11166.622 20590802.676 10 0 59785 53100.00000 0 13100075.840 1733076.861 21816110.802 10 0 59785 54000.00000 0 11195086.152 3704479.232 22617641.120 10 0 59785 54900.00000 0 9392008.775 5863482.734 22979888.579 10 0 59785 55800.00000 0 7739597.222 8160804.666 22895878.923 10 0 59785 56700.00000 0 6277316.199 10539279.765 22367298.875 10 0 59785 57600.00000 0 5033853.594 12936043.119 21404459.187 10 0 59785 58500.00000 0 4026099.411 15284963.395 20026091.579 10 0 59785 59400.00000 0 3258632.934 17519225.866 18258983.629 10 0 59785 60300.00000 0 2723738.268 19573958.406 16137458.563 10 0 59785 61200.00000 0 2401946.365 21388791.663 13702709.842 10 0 59785 62100.00000 0 2263079.621 22910247.327 11002003.104 10 0 59785 63000.00000 0 2267754.195 24093855.340 8087760.541 10 0 59785 63900.00000 0 2369275.991 24905911.973 5016545.257 10 0 59785 64800.00000 0 2515849.712 25324805.630 1847965.052 10 0 59785 65700.00000 0 2653007.199 25341855.119 -1356483.218 10 0 59785 66600.00000 0 2726152.025 24961625.442 -4534606.181 10 0 59785 67500.00000 0 2683112.323 24201708.095 -7624720.189 10 0 59785 68400.00000 0 2476593.503 23091975.139 -10566847.726 10 0 59785 69300.00000 0 2066426.682 21673338.415 -13303880.560 10 0 59785 70200.00000 0 1421517.264 19996065.892 -15782687.005 10 0 59785 71100.00000 0 521410.623 18117725.560 -17955141.877 10 0 59785 72000.00000 0 -642591.877 16100843.028 -19779059.259 10 0 59785 72900.00000 0 -2066814.604 14010370.437 -21219010.216 10 0 59785 73800.00000 0 -3735114.324 11911072.165 -22247009.941 10 0 59785 74700.00000 0 -5619317.001 9864936.159 -22843061.236 10 0 59785 75600.00000 0 -7680167.975 7928718.295 -22995544.078 10 0 59785 76500.00000 0 -9868757.270 6151721.677 -22701443.824 10 0 59785 77400.00000 0 -12128361.903 4573902.898 -21966413.576 10 0 59785 78300.00000 0 -14396629.682 3224383.603 -20804669.255 10 0 59785 79200.00000 0 -16608014.582 2120428.824 -19238718.996 10 0 59785 80100.00000 0 -18696362.938 1266934.177 -17298931.526 10 0 59785 81000.00000 0 -20597543.205 656442.696 -15022951.276 10 0 59785 81900.00000 0 -22252009.791 269689.941 -12454970.904 10 0 59785 82800.00000 0 -23607193.797 76653.805 -9644874.864 10 0 59785 83700.00000 0 -24619620.467 38064.131 -6647270.318 10 0 59785 84600.00000 0 -25256664.321 107307.648 -3520424.060 10 0 59785 85500.00000 0 -25497867.909 232646.985 -325126.410 10 0 59786 0.00000 0 -25335768.544 359658.949 2876495.191 10 0 59786 900.00000 0 -24776197.845 433787.924 6022190.889 10 0 59786 1800.00000 0 -23838041.698 402905.111 9050802.683 10 0 59786 2700.00000 0 -22552470.553 219764.361 11903459.646 10 0 59786 3600.00000 0 -20961672.745 -155750.495 14524725.866 10 0 59786 4500.00000 0 -19117144.423 -754682.778 16863679.975 10 0 59786 5400.00000 0 -17077608.259 -1597447.478 18874904.758 10 0 59786 6300.00000 0 -14906648.490 -2692729.620 20519367.669 10 0 59786 7200.00000 0 -12670161.614 -4036883.515 21765175.379 10 0 59786 8100.00000 0 -10433729.324 -5613858.863 22588188.246 10 0 59786 9000.00000 0 -8260023.125 -7395657.462 22972483.424 10 0 59786 9900.00000 0 -6206348.502 -9343302.007 22910658.268 10 0 59786 10800.00000 0 -4322430.146 -11408277.153 22403968.828 10 0 59786 11700.00000 0 -2648529.527 -13534383.368 21462301.219 10 0 59786 12600.00000 0 -1213972.059 -15659926.829 20103976.737 10 0 59786 13500.00000 0 -36143.885 -17720154.756 18355394.644 10 0 59786 14400.00000 0 880001.308 -19649835.265 16250519.420 10 0 59786 15300.00000 0 1541906.206 -21385874.633 13830222.233 10 0 59786 16200.00000 0 1968847.420 -22869863.261 11141489.083 10 0 59786 17100.00000 0 2190871.530 -24050444.381 8236510.557 10 0 59786 18000.00000 0 2247275.347 -24885406.680 5171670.652 10 0 59786 18900.00000 0 2184695.344 -25343413.491 2006454.003 10 0 59786 19800.00000 0 2054887.540 -25405296.100 -1197707.382 10 0 59786 20700.00000 0 1912292.179 -25064857.024 -4378625.439 10 0 59786 21600.00000 0 1811486.648 -24329149.494 -7474562.226 10 0 59786 22500.00000 0 1804634.721 -23218221.222 -10425427.407 10 0 59786 23400.00000 0 1939040.431 -21764333.092 -13173943.621 10 0 59786 24300.00000 0 2254910.409 -20010685.206 -15666757.028 10 0 59786 25200.00000 0 2783419.764 -18009703.425 -17855471.561 10 0 59786 26100.00000 0 3545163.740 -15820957.833 -19697586.873 10 0 59786 27000.00000 0 4549061.191 -13508799.724 -21157322.087 10 0 59786 27900.00000 0 5791756.954 -11139815.318 -22206309.671 10 0 59786 28800.00000 0 7257549.347 -8780201.866 -22824146.225 10 0 59786 29700.00000 0 8918847.095 -6493174.884 -22998789.816 10 0 59786 30600.00000 0 10737137.890 -4336513.836 -22726796.268 10 0 59786 31500.00000 0 12664429.403 -2360347.808 -22013389.774 10 0 59786 32400.00000 0 14645103.823 -605272.651 -20872366.260 10 0 59786 33300.00000 0 16618109.616 899122.717 -19325830.895 10 0 59786 34200.00000 0 18519399.829 2135260.033 -17403774.332 10 0 59786 35100.00000 0 20284515.730 3098064.300 -15143495.217 10 0 59786 36000.00000 0 21851208.128 3794925.422 -12588879.531 10 0 59786 36900.00000 0 23161986.667 4245131.220 -9789550.255 10 0 59786 37800.00000 0 24166490.131 4478796.501 -6799903.519 10 0 59786 38700.00000 0 24823577.908 4535334.150 -3678049.805 10 0 59786 39600.00000 0 25103054.265 4461533.630 -484681.028 10 0 59786 40500.00000 0 24986952.391 4309329.090 2718114.100 10 0 59786 41400.00000 0 24470323.705 4133352.507 5868062.805 10 0 59786 42300.00000 0 23561498.778 3988376.461 8903924.654 10 0 59786 43200.00000 0 22281808.674 3926755.881 11766687.264 10 0 59786 44100.00000 0 20664778.272 3995978.060 14400717.388 10 0 59786 45000.00000 0 18754825.545 4236425.468 16754844.409 10 0 59786 45900.00000 0 16605521.506 4679446.773 18783354.968 10 0 59786 46800.00000 0 14277483.872 5345818.165 20446879.389 10 0 59786 47700.00000 0 11835992.727 6244660.456 21713152.920 10 0 59786 48600.00000 0 9348427.790 7372858.025 22557637.521 10 0 59786 49500.00000 0 6881633.923 8715004.534 22963992.769 10 0 59786 50400.00000 0 4499324.300 10243878.103 22924387.386 10 0 59786 51300.00000 0 2259628.604 11921426.567 22439646.020 10 0 59786 52200.00000 0 212887.286 13700222.103 21519228.938 10 0 59786 53100.00000 0 -1600217.406 15525324.907 20181045.344 10 0 59786 54000.00000 0 -3150117.236 17336478.665 18451104.095 10 0 59786 54900.00000 0 -4419341.401 19070546.591 16363008.476 10 0 59786 55800.00000 0 -5402987.974 20664086.728 13957304.641 10 0 59786 56700.00000 0 -6108665.153 22055959.264 11280696.027 10 0 59786 57600.00000 0 -6555906.176 23189857.089 8385138.578 10 0 59786 58500.00000 0 -6775083.660 24016653.800 5326834.085 10 0 59786 59400.00000 0 -6805870.091 24496470.804 2165140.943 10 0 59786 60300.00000 0 -6695310.290 24600376.799 -1038576.710 10 0 59786 61200.00000 0 -6495587.836 24311648.142 -4222139.029 10 0 59786 62100.00000 0 -6261580.404 23626536.881 -7323756.485 10 0 59786 63000.00000 0 -6048307.829 22554514.009 -10283228.418 10 0 59786 63900.00000 0 -5908381.123 21117977.209 -13043110.545 10 0 59786 64800.00000 0 -5889560.646 19351434.850 -15549828.764 10 0 59786 65700.00000 0 -6032527.005 17300200.044 -17754717.688 10 0 59786 66600.00000 0 -6368959.172 15018648.779 -19614963.809 10 0 59786 67500.00000 0 -6920001.375 12568114.409 -21094435.293 10 0 59786 68400.00000 0 -7695184.004 10014505.637 -22164382.588 10 0 59786 69300.00000 0 -8691844.683 7425746.669 -22803996.546 10 0 59786 70200.00000 0 -9895074.787 4869145.359 -23000813.508 10 0 59786 71100.00000 0 -11278194.734 2408798.074 -22750959.663 10 0 59786 72000.00000 0 -12803739.264 103138.504 -22059229.881 10 0 59786 72900.00000 0 -14424912.585 -1997268.441 -20938999.312 10 0 59786 73800.00000 0 -16087453.608 -3851596.664 -19411969.028 10 0 59786 74700.00000 0 -17731834.070 -5430215.641 -17507750.106 10 0 59786 75600.00000 0 -19295698.247 -6715673.948 -15263293.584 10 0 59786 76500.00000 0 -20716442.509 -7703169.272 -12722176.661 10 0 59786 77400.00000 0 -21933826.639 -8400485.927 -9933758.519 10 0 59786 78300.00000 0 -22892507.220 -8827403.395 -6952221.766 10 0 59786 79200.00000 0 -23544386.235 -9014601.625 -3835517.954 10 0 59786 80100.00000 0 -23850675.524 -9002110.115 -644237.888 10 0 59786 81000.00000 0 -23783589.516 -8837367.238 2559570.945 10 0 59786 81900.00000 0 -23327594.257 -8572972.882 5713616.262 10 0 59786 82800.00000 0 -22480159.439 -8264230.469 8756577.768 10 0 59786 83700.00000 0 -21251981.238 -7966583.460 11629304.464 10 0 59786 84600.00000 0 -19666666.117 -7733055.781 14275968.519 10 0 59786 85500.00000 0 -17759888.674 -7611805.350 16645152.650 10 0 59787 0.00000 0 -15578058.895 -7643894.844 18690849.503 10 0 59787 900.00000 0 -13176553.358 -7861374.503 20373354.622 10 0 59787 1800.00000 0 -10617587.362 -8285758.186 21660033.198 10 0 59787 2700.00000 0 -7967812.748 -8926957.268 22525949.912 10 0 59787 3600.00000 0 -5295744.219 -9782717.464 22954347.406 10 0 59787 4500.00000 0 -2669119.769 -10838582.424 22936965.950 10 0 59787 5400.00000 0 -152304.560 -12068385.870 22474198.540 10 0 59787 6300.00000 0 2196154.754 -13435251.921 21575078.953 10 0 59787 7200.00000 0 4325724.595 -14893061.995 20257103.297 10 0 59787 8100.00000 0 6195737.935 -16388327.261 18545888.690 10 0 59787 9000.00000 0 7776830.992 -17862388.654 16474675.567 10 0 59787 9900.00000 0 9051904.583 -19253852.674 14083683.113 10 0 59787 10800.00000 0 10016571.578 -20501161.313 11419329.948 10 0 59787 11700.00000 0 10679073.111 -21545188.630 8533334.847 10 0 59787 12600.00000 0 11059668.358 -22331755.177 5481714.648 10 0 59787 13500.00000 0 11189524.702 -22813954.785 2323698.568 10 0 59787 14400.00000 0 11109156.017 -22954195.816 -879420.166 10 0 59787 15300.00000 0 10866475.653 -22725870.843 -4065472.981 10 0 59787 16200.00000 0 10514547.052 -22114584.269 -7172621.800 10 0 59787 17100.00000 0 10109127.462 -21118885.767 -10140558.564 10 0 59787 18000.00000 0 9706108.874 -19750478.095 -12911674.854 10 0 59787 18900.00000 0 9358964.693 -18033890.055 -15432178.928 10 0 59787 19800.00000 0 9116310.170 -16005627.320 -17653138.475 10 0 59787 20700.00000 0 9019679.851 -13712836.101 -19531428.923 10 0 59787 21600.00000 0 9101616.077 -11211534.765 -21030569.217 10 0 59787 22500.00000 0 9384149.353 -8564486.186 -22121429.142 10 0 59787 23400.00000 0 9877735.006 -5838798.729 -22782794.715 10 0 59787 24300.00000 0 10580691.414 -3103354.826 -23001781.029 10 0 59787 25200.00000 0 11479164.122 -426173.142 -22774084.672 10 0 59787 26100.00000 0 12547618.172 2128186.827 -22104070.809 10 0 59787 27000.00000 0 13749838.874 4501070.753 -21004693.049 10 0 59787 27900.00000 0 15040399.990 6641925.209 -19497247.236 10 0 59787 28800.00000 0 16366538.545 8510152.494 -17610963.401 10 0 59787 29700.00000 0 17670358.316 10076548.023 -15382443.146 10 0 59787 30600.00000 0 18891269.972 11324261.073 -12854952.724 10 0 59787 31500.00000 0 19968565.547 12249239.350 -10077585.006 10 0 59787 32400.00000 0 20844018.921 12860139.572 -7104306.244 10 0 59787 33300.00000 0 21464402.535 13177708.630 -3992905.945 10 0 59787 34200.00000 0 21783813.734 13233662.201 -803870.488 10 0 59787 35100.00000 0 21765711.979 13069109.046 2400797.296 10 0 59787 36000.00000 0 21384580.174 12732588.522 5558789.033 10 0 59787 36900.00000 0 20627139.231 12277805.227 8608707.875 10 0 59787 37800.00000 0 19493063.893 11761157.606 11491267.306 10 0 59787 38700.00000 0 17995168.933 11239166.024 14150447.721 10 0 59787 39600.00000 0 16159057.390 10765909.868 16534587.660 10 0 59787 40500.00000 0 14022245.120 10390582.719 18597388.233 10 0 59787 41400.00000 0 11632798.039 10155269.346 20298811.207 10 0 59787 42300.00000 0 9047538.829 10093038.610 21605853.469 10 0 59787 43200.00000 0 6329897.702 10226432.779 22493183.350 10 0 59787 44100.00000 0 3547496.445 10566416.870 22943627.061 10 0 59787 45000.00000 0 769565.947 11111832.081 22948496.449 10 0 59787 45900.00000 0 -1935696.105 11849376.210 22507752.402 10 0 59787 46800.00000 0 -4503718.367 12754111.804 21630001.236 10 0 59787 47700.00000 0 -6875993.031 13790480.715 20332324.491 10 0 59787 48600.00000 0 -9002256.972 14913782.603 18639945.591 10 0 59787 49500.00000 0 -10842327.451 16072055.560 16585739.762 10 0 59787 50400.00000 0 -12367517.203 17208280.137 14209596.507 10 0 59787 51300.00000 0 -13561571.352 18262814.513 11557646.699 10 0 59787 52200.00000 0 -14421088.344 19175958.716 8681368.865 10 0 59787 53100.00000 0 -14955408.536 19890540.256 5636591.767 10 0 59787 54000.00000 0 -15185976.311 20354412.400 2482412.353 10 0 59787 54900.00000 0 -15145203.577 20522759.877 -719950.067 10 0 59787 55800.00000 0 -14874883.325 20360114.630 -3908341.088 10 0 59787 56700.00000 0 -14424220.903 19841996.398 -7020876.830 10 0 59787 57600.00000 0 -13847566.604 18956108.495 -9997144.379 10 0 59787 58500.00000 0 -13201945.678 17703037.827 -12779373.502 10 0 59787 59400.00000 0 -12544490.335 16096428.919 -15313556.843 10 0 59787 60300.00000 0 -11929882.269 14162623.665 -17550496.876 10 0 59787 61200.00000 0 -11407913.813 11939781.106 -19446759.380 10 0 59787 62100.00000 0 -11021270.508 9476512.924 -20965515.182 10 0 59787 63000.00000 0 -10803628.625 6830090.582 -22077254.183 10 0 59787 63900.00000 0 -10778147.788 4064297.885 -22760358.055 10 0 59787 64800.00000 0 -10956422.281 1247017.168 -23001520.837 10 0 59787 65700.00000 0 -11337935.446 -1552351.524 -22796009.411 10 0 59787 66600.00000 0 -11910040.489 -4265531.936 -22147758.822 10 0 59787 67500.00000 0 -12648469.053 -6827965.014 -21069300.395 10 0 59787 68400.00000 0 -13518346.794 -9181247.349 -19581523.673 10 0 59787 69300.00000 0 -14475673.895 -11275313.949 -17713276.237 10 0 59787 70200.00000 0 -15469208.884 -13070275.209 -15500808.564 10 0 59787 71100.00000 0 -16442676.924 -14537832.162 -12987074.006 10 0 59787 72000.00000 0 -17337209.879 -15662211.438 -10220896.967 10 0 59787 72900.00000 0 -18093915.342 -16440581.491 -7256025.024 10 0 59787 73800.00000 0 -18656466.051 -16882933.272 -4150083.203 10 0 59787 74700.00000 0 -18973599.901 -17011431.089 -963450.914 10 0 59787 75600.00000 0 -19001424.325 -16859261.806 2241916.282 10 0 59787 76500.00000 0 -18705426.835 -16469031.816 5403696.625 10 0 59787 77400.00000 0 -18062105.932 -15890780.347 8460419.466 10 0 59787 78300.00000 0 -17060152.591 -15179694.059 11352665.551 10 0 59787 79200.00000 0 -15701131.617 -14393620.386 14024226.242 10 0 59787 80100.00000 0 -13999633.397 -13590485.532 16423198.527 10 0 59787 81000.00000 0 -11982888.978 -12825726.862 18502994.239 10 0 59787 81900.00000 0 -9689864.016 -12149848.477 20223243.880 10 0 59787 82800.00000 0 -7169869.074 -11606203.335 21550577.624 10 0 59787 83700.00000 0 -4480743.864 -11229095.313 22459268.842 10 0 59787 84600.00000 0 -1686690.631 -11042280.919 22931728.272 10 0 59787 85500.00000 0 1144153.526 -11057933.308 22958839.875 99